Wind_Speed
7 7 8 8 7 8 8 7 7 7 8 7 8 8 8 8 9 9 10 10 11 11 12 13 13 13 14 14 15 15 15 15 16 16 16 16 16 16 16 16 16 16 17 17
9 8 8 9 8 8 9 8 8 8 8 8 9 9 8 9 9 10 11 12 13 13 13 13 13 13 14 14 16 16 15 15 16 16 16 16 16 16 17 17 17 18 18 18
11 10 10 8 8 8 8 9 10 10 9 11 10 10 9 9 10 10 11 12 12 12 13 14 13 14 14 15 15 15 15 16 17 17 17 17 17 18 18 19 19 19 20 20
12 13 13 10 10 10 9 9 9 10 11 11 11 11 10 10 10 11 12 12 12 13 13 13 14 14 15 15 16 16 17 17 17 18 18 18 18 19 19 19 19 19 20 20
14 14 13 11 12 11 11 10 10 10 9 10 11 11 11 11 11 12 14 14 13 14 15 15 14 15 15 16 16 17 18 18 19 19 19 19 19 20 20 20 20 21 21 21
16 16 14 12 12 12 12 10 10 10 10 10 11 12 11 12 12 12 13 13 14 15 16 16 15 16 16 16 17 17 18 19 20 20 20 20 21 21 22 22 22 23 23 23
17 16 15 13 13 13 13 11 11 12 12 12 12 12 11 12 12 12 13 13 14 15 16 16 17 17 18 18 18 18 19 19 20 20 21 21 22 23 24 24 24 24 24 25
19 18 16 14 15 15 14 13 13 14 14 14 14 13 12 12 13 14 15 16 16 17 17 18 19 19 19 18 19 20 20 21 22 22 23 23 23 24 24 25 25 26 26 26
20 19 17 16 17 16 16 16 15 15 15 15 16 16 15 15 15 16 17 18 18 19 19 19 20 20 20 20 21 21 22 22 23 23 24 24 25 25 25 26 26 27 27 27
22 20 19 19 18 18 18 17 17 16 16 16 17 18 17 17 17 18 19 20 20 20 20 21 21 21 22 22 23 23 24 24 24 24 25 26 26 27 27 28 28 28 28 28
22 21 21 21 20 20 20 20 19 18 18 18 18 18 19 19 19 20 21 21 21 21 21 21 22 22 23 24 24 25 26 26 26 26 27 27 28 28 29 29 30 30 30 30
23 22 23 22 22 22 21 21 20 20 20 20 19 20 20 21 21 22 22 22 22 22 23 23 24 24 25 26 26 27 27 28 28 28 29 29 29 29 29 30 30 31 31 32
25 25 24 23 23 23 23 22 21 21 21 21 21 21 22 22 22 22 22 23 23 24 24 25 26 26 26 27 27 27 28 28 28 29 29 29 30 30 31 31 32 32 33 34
26 26 25 25 25 24 24 23 23 23 23 23 23 23 23 23 23 23 24 24 25 25 26 26 26 27 27 27 27 28 28 29 29 30 30 31 31 32 32 33 33 34 34 35
27 27 27 26 26 26 26 25 25 24 24 25 25 24 24 24 24 24 25 25 25 26 27 27 27 28 28 28 28 29 29 30 30 31 32 33 33 34 34 35 35 35 36 37
28 28 28 28 27 27 28 28 28 27 27 27 26 26 26 26 25 25 26 26 27 27 27 28 28 28 29 29 29 30 30 31 32 33 33 34 35 35 36 36 37 38 38 39
29 29 29 29 28 28 29 29 30 29 30 29 29 28 28 27 27 27 28 28 28 28 28 28 28 29 29 30 30 31 32 33 33 34 34 35 36 37 38 38 39 39 40 41
30 30 30 30 29 29 30 30 30 30 31 31 31 30 30 29 30 29 29 30 29 29 28 29 30 30 31 31 32 33 34 34 35 35 35 36 37 37 38 39 40 41 42 43
31 31 31 31 31 31 31 31 31 32 32 32 32 32 31 31 31 31 31 31 31 31 30 31 31 32 32 33 34 34 35 35 36 36 37 37 38 39 40 40 41 42 43 44
32 32 32 32 32 32 32 32 32 32 33 33 33 33 33 33 33 33 33 32 32 32 32 32 33 33 33 33 34 35 35 36 37 38 38 39 40 40 41 42 42 43 44 44
32 32 32 32 32 32 32 32 32 33 33 33 33 34 34 34 34 34 33 33 33 33 33 33 34 34 34 35 35 36 36 37 38 39 40 40 40 41 41 42 42 43 43 43
31 31 31 31 32 33 33 33 33 33 33 33 33 34 34 33 34 34 34 33 34 34 34 34 35 35 35 36 37 37 38 39 39 39 39 39 40 41 41 41 42 42 42 42
31 30 30 31 31 31 32 32 33 33 33 33 33 32 33 33 33 33 34 34 34 34 35 35 36 36 37 38 39 39 39 39 39 39 39 39 40 40 41 41 41 42 42 43
30 30 30 30 31 31 31 31 32 32 32 32 31 31 32 32 33 33 34 34 35 35 35 36 37 38 38 39 39 39 39 39 38 38 39 39 40 40 41 41 41 42 42 43
30 30 31 31 31 31 31 31 32 31 31 31 31 32 32 33 33 34 34 34 35 35 36 36 37 37 38 38 38 38 38 38 38 39 40 40 41 42 42 41 41 42 42 43
30 30 31 31 31 31 32 32 32 31 31 32 32 32 32 33 34 34 34 34 35 35 36 36 37 37 38 38 38 38 38 39 39 40 40 41 41 41 41 41 41 41 42 42
30 30 30 31 31 32 32 32 32 32 33 33 32 32 32 32 33 33 34 35 35 36 36 36 37 37 37 37 38 38 39 39 40 41 41 41 41 41 41 41 42 42 42 42
Wind_Direction
238 241 240 236 238 238 241 241 242 242 244 245 242 240 240 241 245 247 244 241 238 236 239 243 246 249 252 255 257 259 260 262 263 266 268 271 273 273 276 278 279 280 282 282
239 246 245 238 239 240 241 245 249 250 246 248 251 250 249 248 246 246 246 243 243 241 244 249 252 254 256 260 260 260 260 263 265 268 270 271 272 274 276 277 279 281 282 283
237 242 242 241 243 248 247 250 255 259 258 255 256 260 260 254 250 250 250 248 243 245 247 249 253 257 260 262 261 260 262 266 268 269 271 271 272 275 278 280 281 281 282 283
241 242 242 247 253 259 263 262 259 260 260 260 258 261 262 257 254 250 250 251 249 252 252 251 255 259 261 259 260 262 264 268 270 271 273 272 274 277 279 282 283 283 283 284
245 246 246 244 252 262 266 266 267 267 266 262 258 257 260 260 257 252 251 254 254 255 256 257 259 261 262 260 262 265 267 270 272 274 275 275 276 278 280 282 283 283 284 286
247 249 246 247 251 257 262 265 266 268 268 267 265 266 264 260 258 255 254 258 259 258 258 259 263 265 266 263 266 268 270 271 273 276 277 277 278 279 280 281 282 283 284 286
249 253 250 248 250 255 260 267 266 266 267 268 268 269 266 264 263 265 266 268 268 266 263 262 265 266 267 266 268 270 270 271 273 275 277 278 278 279 280 281 282 283 284 286
250 255 256 254 255 258 262 263 264 265 263 266 267 267 267 268 270 269 268 269 270 270 269 267 266 267 268 268 269 269 270 272 276 278 279 279 280 280 281 281 281 282 284 285
252 256 257 258 258 259 260 262 264 266 266 266 267 268 271 271 271 269 270 270 271 271 272 271 269 268 269 270 271 272 273 276 278 279 280 280 281 281 281 283 284 284 285 286
251 255 258 260 260 260 261 264 265 265 268 267 267 269 272 272 270 270 270 272 272 273 273 273 272 270 270 270 272 275 277 277 278 279 280 280 281 283 284 284 285 285 285 285
252 256 258 258 260 261 262 265 267 268 267 266 267 270 272 273 273 273 273 272 273 273 273 273 274 273 273 274 275 276 277 279 280 281 282 282 283 283 284 285 285 285 285 285
249 252 255 257 258 260 262 263 265 266 267 268 267 269 271 272 272 272 273 273 273 273 274 275 275 274 275 276 278 279 279 279 280 282 282 282 284 284 285 286 286 286 286 286
250 252 253 254 255 256 258 262 263 264 267 271 271 270 272 272 272 272 273 273 273 273 274 275 276 276 277 276 278 279 280 281 281 281 281 282 283 285 285 285 285 286 286 287
253 254 254 254 255 256 258 262 264 265 268 270 271 271 271 270 270 272 272 272 272 273 274 275 276 276 277 277 279 279 280 281 282 283 283 283 284 285 285 285 286 286 286 287
253 255 255 255 256 257 259 261 263 265 267 269 270 271 272 271 271 272 273 273 274 275 276 277 277 278 278 279 280 281 281 282 282 283 283 284 285 285 286 286 287 288 288 288
252 253 255 255 256 257 259 260 262 264 266 268 269 270 271 271 271 272 273 274 274 276 276 277 278 279 280 280 282 283 283 283 283 284 285 285 286 286 287 287 288 289 289 289
251 253 256 257 258 259 260 261 261 262 265 267 269 270 271 270 270 271 273 274 275 275 277 277 278 279 280 280 282 283 284 284 284 284 285 286 286 287 288 288 289 289 290 290
253 255 257 258 259 260 261 262 262 263 264 266 268 269 269 270 271 271 272 274 275 275 276 276 277 278 279 280 282 283 284 284 285 286 287 287 287 288 289 289 289 290 290 291
255 256 257 258 259 261 262 262 263 265 266 267 268 268 268 269 269 270 271 273 274 275 275 277 278 279 280 281 284 285 286 286 287 287 288 288 288 288 289 289 290 291 292 292
255 256 257 259 260 261 262 263 264 265 266 268 268 268 268 268 269 270 271 272 273 275 276 276 278 280 281 283 283 285 286 287 288 288 289 289 289 289 290 291 292 293 293 293
255 256 258 260 261 262 262 263 264 265 267 268 269 270 269 269 269 269 271 272 273 274 276 277 279 280 282 283 285 285 287 288 289 289 289 289 289 290 291 292 293 294 294 294
255 256 258 260 261 262 262 264 265 266 267 269 270 270 268 268 269 269 271 272 273 274 276 278 279 281 282 283 285 287 288 289 290 290 290 290 291 292 292 292 293 294 294 295
255 255 257 258 259 260 261 264 264 266 267 269 270 268 267 268 269 270 271 272 273 275 276 277 279 282 284 284 286 288 288 289 290 291 292 293 293 293 293 294 294 295 295 296
255 256 258 259 260 260 261 263 264 266 267 267 267 267 268 268 269 271 272 273 274 275 276 278 279 282 284 285 285 287 288 289 291 291 292 292 293 293 294 294 295 296 297 298
257 257 257 258 260 261 262 263 264 264 265 265 266 267 268 270 271 272 273 274 275 276 277 278 280 282 284 285 286 287 289 290 291 292 293 293 293 294 294 294 295 296 297 297
259 260 260 260 262 263 264 264 264 263 265 267 268 269 270 271 272 273 274 275 276 277 278 279 281 283 284 286 287 288 289 291 292 293 293 293 294 294 295 295 296 297 297 298
259 261 261 262 263 264 264 265 265 265 267 269 269 270 271 272 273 274 275 276 276 277 278 280 281 283 284 285 287 288 288 290 292 293 294 293 294 294 295 295 296 296 297 297
Height
5838 5839 5839 5840 5840 5840 5841 5842 5843 5843 5843 5844 5844 5845 5846 5847 5848 5849 5849 5850 5852 5853 5853 5854 5855 5856 5856 5857 5857 5857 5858 5858 5858 5857 5857 5857 5856 5855 5855 5854 5853 5852 5851 5850
5836 5836 5837 5837 5838 5839 5839 5840 5840 5841 5842 5841 5842 5843 5843 5844 5845 5846 5846 5847 5848 5849 5850 5851 5851 5852 5852 5853 5853 5853 5853 5854 5853 5853 5853 5852 5852 5851 5850 5849 5848 5847 5846 5845
5834 5834 5834 5836 5837 5837 5837 5838 5838 5838 5840 5839 5839 5840 5841 5841 5842 5842 5843 5844 5844 5845 5846 5847 5848 5848 5848 5848 5848 5849 5849 5849 5849 5849 5848 5848 5847 5846 5845 5844 5843 5842 5841 5840
5831 5832 5832 5836 5834 5834 5835 5835 5835 5835 5836 5836 5837 5837 5838 5838 5839 5839 5840 5840 5841 5841 5842 5843 5844 5844 5844 5844 5845 5845 5845 5845 5844 5844 5843 5843 5842 5841 5840 5839 5838 5837 5836 5834
5827 5827 5829 5831 5831 5831 5832 5832 5832 5832 5833 5833 5833 5834 5834 5835 5835 5836 5836 5836 5837 5838 5838 5839 5840 5840 5840 5840 5840 5840 5840 5840 5839 5839 5838 5837 5836 5836 5835 5834 5833 5832 5830 5829
5823 5823 5825 5828 5828 5828 5829 5829 5830 5830 5830 5830 5830 5831 5832 5831 5831 5832 5832 5832 5833 5833 5834 5834 5835 5835 5835 5836 5835 5835 5835 5835 5834 5833 5833 5832 5831 5830 5829 5828 5827 5825 5824 5823
5818 5819 5821 5824 5823 5824 5826 5827 5826 5826 5826 5827 5827 5828 5828 5827 5828 5828 5828 5828 5828 5828 5829 5830 5830 5830 5830 5830 5830 5830 5830 5829 5828 5827 5827 5826 5825 5824 5823 5821 5820 5819 5818 5816
5814 5815 5819 5819 5819 5821 5822 5821 5821 5821 5822 5822 5823 5823 5823 5823 5823 5823 5823 5823 5824 5824 5824 5824 5825 5825 5825 5825 5825 5824 5824 5823 5822 5821 5820 5819 5818 5817 5816 5814 5813 5812 5810 5809
5810 5812 5813 5813 5814 5815 5816 5816 5817 5817 5817 5818 5818 5818 5818 5818 5818 5818 5818 5818 5819 5819 5819 5819 5819 5819 5819 5819 5818 5818 5818 5817 5816 5815 5814 5813 5811 5810 5809 5807 5806 5804 5803 5801
5803 5805 5807 5808 5808 5809 5810 5810 5811 5811 5812 5812 5812 5812 5812 5813 5813 5813 5813 5813 5813 5813 5813 5813 5813 5813 5813 5812 5812 5811 5811 5810 5809 5808 5807 5805 5804 5803 5801 5800 5798 5796 5795 5793
5797 5799 5800 5801 5802 5803 5804 5804 5805 5806 5806 5806 5806 5806 5807 5807 5807 5807 5807 5807 5807 5807 5807 5807 5806 5806 5806 5805 5805 5804 5803 5803 5802 5800 5799 5798 5796 5795 5793 5792 5790 5788 5786 5784
5791 5793 5794 5795 5796 5796 5797 5798 5798 5799 5799 5800 5800 5800 5800 5800 5800 5800 5800 5800 5801 5800 5800 5800 5800 5799 5799 5798 5797 5797 5796 5795 5794 5792 5791 5790 5788 5786 5784 5783 5781 5779 5777 5775
5784 5785 5787 5788 5789 5790 5790 5791 5792 5792 5793 5793 5793 5794 5794 5794 5794 5794 5794 5794 5794 5793 5793 5793 5792 5792 5791 5790 5789 5788 5787 5786 5785 5784 5782 5781 5779 5778 5776 5774 5772 5769 5767 5765
5775 5777 5779 5781 5782 5782 5783 5784 5785 5785 5786 5786 5786 5786 5787 5787 5787 5787 5786 5786 5786 5785 5785 5785 5784 5783 5783 5782 5781 5780 5779 5777 5776 5775 5773 5772 5770 5768 5766 5764 5762 5760 5757 5755
5767 5769 5771 5772 5773 5774 5775 5776 5777 5778 5778 5778 5779 5779 5779 5779 5779 5779 5778 5778 5777 5777 5777 5776 5776 5775 5774 5773 5772 5771 5770 5768 5767 5765 5764 5762 5760 5758 5756 5754 5752 5749 5747 5744
5758 5760 5761 5763 5765 5766 5767 5767 5768 5769 5769 5770 5770 5770 5770 5770 5771 5770 5770 5770 5769 5769 5768 5768 5767 5766 5765 5764 5763 5762 5760 5759 5757 5756 5754 5752 5750 5748 5745 5743 5741 5738 5735 5733
5749 5751 5752 5754 5756 5757 5758 5759 5759 5760 5760 5760 5761 5761 5761 5761 5761 5761 5761 5761 5760 5760 5760 5759 5758 5757 5756 5755 5754 5752 5751 5749 5747 5745 5743 5741 5739 5737 5734 5732 5729 5726 5723 5720
5740 5742 5743 5745 5746 5747 5748 5748 5749 5749 5750 5750 5751 5751 5751 5752 5752 5752 5752 5751 5751 5751 5750 5750 5749 5748 5747 5745 5744 5742 5740 5738 5736 5734 5732 5730 5727 5725 5722 5720 5717 5714 5710 5707
5729 5732 5733 5734 5735 5736 5737 5737 5738 5739 5739 5739 5740 5740 5740 5741 5741 5741 5741 5741 5741 5741 5741 5740 5739 5738 5736 5735 5733 5731 5729 5727 5725 5723 5720 5718 5716 5713 5710 5707 5704 5701 5697 5693
5719 5721 5722 5724 5725 5726 5727 5727 5728 5728 5728 5729 5729 5729 5730 5730 5730 5730 5731 5730 5730 5730 5730 5729 5728 5727 5725 5724 5722 5721 5718 5716 5714 5711 5709 5706 5703 5700 5697 5694 5691 5687 5683 5679
5709 5710 5712 5713 5714 5715 5716 5716 5717 5717 5718 5718 5718 5718 5718 5718 5719 5719 5719 5719 5719 5719 5718 5718 5717 5716 5714 5713 5711 5709 5707 5704 5702 5699 5696 5694 5691 5688 5684 5681 5677 5673 5669 5665
5699 5700 5702 5703 5704 5705 5705 5706 5706 5707 5707 5707 5707 5707 5707 5707 5707 5707 5708 5708 5708 5708 5707 5706 5705 5704 5703 5701 5699 5697 5695 5692 5690 5687 5684 5681 5678 5675 5671 5668 5664 5660 5656 5652
5689 5690 5692 5693 5693 5694 5695 5695 5695 5696 5696 5696 5696 5696 5696 5696 5696 5696 5697 5697 5696 5696 5695 5695 5693 5692 5691 5689 5687 5685 5682 5680 5677 5674 5671 5668 5665 5662 5659 5655 5651 5647 5643 5639
5679 5680 5682 5682 5683 5683 5684 5684 5684 5684 5684 5684 5685 5685 5685 5685 5685 5685 5685 5685 5684 5684 5683 5682 5681 5680 5678 5677 5675 5672 5670 5667 5664 5662 5659 5656 5652 5649 5646 5642 5638 5634 5630 5626
5669 5670 5671 5672 5672 5673 5673 5673 5674 5674 5674 5674 5675 5675 5675 5674 5674 5674 5674 5673 5673 5672 5671 5670 5669 5667 5666 5664 5662 5659 5657 5654 5652 5649 5646 5643 5640 5636 5633 5629 5626 5622 5618 5613
5659 5660 5660 5661 5662 5662 5663 5663 5663 5664 5664 5664 5664 5664 5664 5663 5663 5663 5662 5661 5661 5660 5659 5658 5657 5655 5653 5651 5649 5647 5644 5642 5639 5636 5633 5630 5627 5623 5620 5616 5613 5609 5605 5601
5648 5649 5650 5651 5651 5652 5652 5652 5653 5653 5653 5653 5654 5653 5653 5652 5652 5651 5651 5650 5649 5648 5647 5646 5644 5642 5641 5639 5637 5634 5632 5629 5626 5623 5620 5617 5613 5610 5607 5603 5600 5596 5592 5588